Location: Petrozavodsk
(61.7955°N, 34.3748°E)
Time: 02:04:31
(UTC+03:00)

Envisat - Pass Details

Date: 31 March 2023
Orbit: 763 x 765 km, 98.2° (Epoch: 28 May)

Event Time Altitude Azimuth Distance (km) Brightness Sun altitude
Rises 03:42:38 0° 20° (NNE) 3,249 7.4 -16.2°
Reaches altitude 10° 03:45:22 10° 34° (NNE) 2,318 6.8 -15.9°
Maximum altitude 03:49:32 25° 88° (E) 1,529 5.1 -15.6°
Drops below altitude 10° 03:53:40 10° 143° (SE) 2,305 5.4 -15.2°
Sets 03:56:22 0° 157° (SSE) 3,226 6.1 -15.0°
